Kayseri, Turkey

11:21 PM +03 on April 23, 2017 (GMT +0300)
Erkilet Air Base

Weather History for LTAU - January, 2013

Change the Weather History Date:

Thursday, January 31, 2013

  Actual Average Record
Temperature  
Mean Temperature 32 °F -  
Max Temperature 35 °F 41 °F 64 °F (2001)
Min Temperature 29 °F 22 °F -4 °F (2008)
Degree Days  
Heating Degree Days 33    
Moisture  
Dew Point 29 °F    
Average Humidity 86    
Maximum Humidity 93    
Minimum Humidity 73    
Precipitation  
Precipitation 0.00 in - - ()
Sea Level Pressure  
Sea Level Pressure 29.76 in    
Wind  
Wind Speed 3 mph ()    
Max Wind Speed 12 mph    
Max Gust Speed -    
Visibility 5.7 miles    
Events Snow    
Averages and records for this station are not official NWS values.
T = Trace of Precipitation, MM = Missing Value Source: Averaged Metar Reports

Daily Weather History Graph

Daily Weather History Graph

Search for Another Location

Airport or City:

Trip Planner

Search our weather history database for the weather conditions in past years. The results will help you decide how hot, cold, wet, or windy it might be!

Date:

Astronomy

Jan. 31, 2013 Rise Set
Actual Time 6:45 AM EET 4:58 PM EET
Civil Twilight 6:17 AM EET 5:26 PM EET
Nautical Twilight 5:45 AM EET 5:58 PM EET
Astronomical Twilight 5:13 AM EET 6:30 PM EET
Moon 9:35 PM EET (1/31) 8:36 AM EET (1/31)
Length of Visible Light 11h 09m
Length of Day
10h 13m
Waning Gibbous, 82% of the Moon is Illuminated
Jan 31
Waning Gibbous
Feb 3
Last Quarter
Feb 10
New
Feb 17
First Quarter
Feb 25
Full

Hourly Weather History & Observations

Time (EET) Temp. Windchill Dew Point Humidity Pressure Visibility Wind Dir Wind Speed Gust Speed Precip Events Conditions
12:20 AM 32.0 °F - 26.6 °F 80% 29.77 in 6.2 mi Calm Calm - N/A   Mostly Cloudy
12:50 AM 30.2 °F - 26.6 °F 86% 29.77 in 6.2 mi Calm Calm - N/A   Mostly Cloudy
1:20 AM 30.2 °F - 26.6 °F 86% 29.77 in 6.2 mi Calm Calm - N/A   Mostly Cloudy
1:50 AM 30.2 °F - 26.6 °F 86% 29.74 in 6.2 mi Calm Calm - N/A   Mostly Cloudy
2:00 AM 31 °F - 27 °F 79%  in 12 mi Calm Calm - -   Partly Cloudy
2:20 AM 30.2 °F - 28.4 °F 93% 29.74 in 6.2 mi Calm Calm - N/A   Mostly Cloudy
2:50 AM 32.0 °F - 28.4 °F 87% 29.74 in 6.2 mi Calm Calm - N/A   Mostly Cloudy
3:20 AM 30.2 °F - 28.4 °F 93% 29.74 in 6.2 mi WSW 1.2 mph - N/A   Mostly Cloudy
3:50 AM 30.2 °F - 28.4 °F 93% 29.74 in 6.2 mi Calm Calm - N/A   Mostly Cloudy
4:20 AM 32.0 °F - 28.4 °F 87% 29.74 in 6.2 mi West 2.3 mph - N/A   Mostly Cloudy
4:50 AM 32.0 °F 28.7 °F 28.4 °F 87% 29.74 in 6.2 mi WSW 3.5 mph - N/A   Mostly Cloudy
5:20 AM 32.0 °F 28.7 °F 28.4 °F 87% 29.74 in 6.2 mi WSW 3.5 mph - N/A   Mostly Cloudy
5:50 AM 32.0 °F 27.5 °F 28.4 °F 87% 29.74 in 6.2 mi West 4.6 mph - N/A   Mostly Cloudy
6:20 AM 32.0 °F 27.5 °F 28.4 °F 87% 29.74 in 6.2 mi WSW 4.6 mph - N/A   Mostly Cloudy
6:50 AM 32.0 °F 26.4 °F 28.4 °F 87% 29.77 in 6.2 mi WSW 5.8 mph - N/A   Mostly Cloudy
7:20 AM 32.0 °F 25.6 °F 28.4 °F 87% 29.77 in 6.2 mi WSW 6.9 mph - N/A Snow Light Snow
7:50 AM 32.0 °F 26.4 °F 28.4 °F 87% 29.77 in 6.2 mi WSW 5.8 mph - N/A Snow Light Snow
8:00 AM 32 °F - 28 °F 79%  in 6 mi WSW 5.8 mph - - Snow Light Snow
8:20 AM 32.0 °F 27.5 °F 28.4 °F 87% 29.77 in 4.3 mi SW 4.6 mph - N/A Snow Light Snow
8:50 AM 32.0 °F 27.5 °F 28.4 °F 87% 29.77 in 4.3 mi WSW 4.6 mph - N/A Snow Light Snow
9:20 AM 32.0 °F 28.7 °F 30.2 °F 93% 29.77 in 5.0 mi SW 3.5 mph - N/A Snow Light Snow
9:50 AM 32.0 °F 25.6 °F 30.2 °F 93% 29.77 in 5.0 mi WSW 6.9 mph - N/A Snow Light Snow
10:20 AM 33.8 °F 28.6 °F 30.2 °F 87% 29.77 in 5.6 mi SW 5.8 mph - N/A Snow Light Snow
10:50 AM 33.8 °F 27.0 °F 30.2 °F 87% 29.77 in 5.6 mi SW 8.1 mph - N/A Snow Light Snow
11:20 AM 33.8 °F 26.4 °F 30.2 °F 87% 29.74 in 6.2 mi WSW 9.2 mph - N/A   Overcast
11:50 AM 33.8 °F 27.0 °F 30.2 °F 87% 29.74 in 5.6 mi West 8.1 mph - N/A   Overcast
12:20 PM 33.8 °F 27.0 °F 30.2 °F 87% 29.74 in 6.2 mi West 8.1 mph - N/A   Overcast
12:50 PM 33.8 °F 27.7 °F 28.4 °F 81% 29.74 in 6.2 mi West 6.9 mph - N/A   Overcast
1:20 PM 35.6 °F 29.2 °F 30.2 °F 81% 29.74 in 6.2 mi West 8.1 mph - N/A   Overcast
1:50 PM 35.6 °F 29.2 °F 30.2 °F 81% 29.74 in 6.2 mi West 8.1 mph - N/A   Overcast
2:00 PM 35 °F - 29 °F 73%  in 6 mi West 8.1 mph - -   Mist
2:20 PM 35.6 °F 29.2 °F 28.4 °F 75% 29.74 in 6.2 mi WSW 8.1 mph - N/A   Overcast
2:50 PM 35.6 °F 27.5 °F 28.4 °F 75% 29.74 in 6.2 mi West 11.5 mph - N/A   Overcast
3:20 PM 33.8 °F 25.8 °F 28.4 °F 81% 29.74 in 6.2 mi West 10.4 mph - N/A   Overcast
3:50 PM 35.6 °F 28.6 °F 28.4 °F 75% 29.74 in 6.2 mi WSW 9.2 mph - N/A   Overcast
4:20 PM 33.8 °F 26.4 °F 28.4 °F 81% 29.74 in 6.2 mi West 9.2 mph - N/A   Overcast
4:50 PM 33.8 °F 26.4 °F 28.4 °F 81% 29.77 in 3.7 mi West 9.2 mph - N/A   Overcast
5:20 PM 32.0 °F 24.8 °F 30.2 °F 93% 29.77 in 3.7 mi WSW 8.1 mph - N/A   Overcast
5:50 PM 32.0 °F 26.4 °F 30.2 °F 93% 29.77 in 5.0 mi WSW 5.8 mph - N/A Snow Light Snow
6:20 PM 33.8 °F 28.6 °F 28.4 °F 81% 29.77 in 6.2 mi WSW 5.8 mph - N/A   Overcast
6:50 PM 33.8 °F - 28.4 °F 81% 29.77 in 6.2 mi Calm Calm - N/A   Overcast
7:20 PM 33.8 °F - 28.4 °F 81% 29.77 in 6.2 mi Calm Calm - N/A Snow Light Snow
7:50 PM 32.0 °F - 30.2 °F 93% 29.77 in 6.2 mi ESE 1.2 mph - N/A Snow Light Snow
8:00 PM 33 °F - 29 °F 81%  in 6 mi ESE 1.2 mph - - Snow Light Snow
8:20 PM 32.0 °F - 28.4 °F 87% 29.77 in 3.7 mi Calm Calm - N/A   Mostly Cloudy
8:50 PM 32.0 °F - 28.4 °F 87% 29.77 in 3.7 mi Calm Calm - N/A   Mostly Cloudy
9:20 PM 32.0 °F - 30.2 °F 93% 29.77 in 3.7 mi Calm Calm - N/A   Mostly Cloudy
9:50 PM 32.0 °F - 30.2 °F 93% 29.77 in 4.3 mi Calm Calm - N/A   Mostly Cloudy
10:20 PM 32.0 °F - 30.2 °F 93% 29.77 in 5.0 mi East 1.2 mph - N/A   Mostly Cloudy
10:50 PM 32.0 °F - 28.4 °F 87% 29.77 in 5.0 mi Calm Calm - N/A   Mostly Cloudy
11:20 PM 32.0 °F - 28.4 °F 87% 29.77 in 4.3 mi Calm Calm - N/A   Mostly Cloudy
11:50 PM 32.0 °F - 28.4 °F 87% 29.77 in 3.7 mi Calm Calm - N/A   Mostly Cloudy